TimeCDT,TemperatureF,Dew PointF,Humidity,Sea Level PressureIn,VisibilityMPH,Wind Direction,Wind SpeedMPH,Gust SpeedMPH,PrecipitationIn,Events,Conditions,WindDirDegrees,DateUTC
12:53 AM,12.9,5.0,71,30.18,10.0,NW,11.5,-,N/A,,Clear,320,2013-04-01 05:53:00
1:53 AM,10.9,3.9,73,30.20,10.0,NW,9.2,-,N/A,,Clear,320,2013-04-01 06:53:00
2:53 AM,10.0,3.0,73,30.21,10.0,WNW,6.9,-,N/A,,Clear,300,2013-04-01 07:53:00
3:53 AM,8.1,1.9,76,30.22,10.0,NW,5.8,-,N/A,,Clear,310,2013-04-01 08:53:00
4:53 AM,6.1,1.0,80,30.23,10.0,WNW,3.5,-,N/A,,Clear,290,2013-04-01 09:53:00
5:53 AM,5.0,-0.0,80,30.25,10.0,WNW,3.5,-,N/A,,Clear,290,2013-04-01 10:53:00
6:53 AM,3.2,-0.4,85,30.18,10.0,Calm,Calm,-,N/A,,Clear,0,2013-04-01 11:53:00
7:53 AM,6.1,1.0,80,30.27,10.0,WNW,4.6,-,N/A,,Clear,290,2013-04-01 12:53:00
8:53 AM,10.0,3.0,73,30.28,10.0,WNW,6.9,-,N/A,,Clear,300,2013-04-01 13:53:00
9:53 AM,15.1,3.9,61,30.27,10.0,WNW,8.1,-,N/A,,Clear,300,2013-04-01 14:53:00
10:53 AM,19.9,7.0,57,30.27,10.0,WNW,9.2,-,N/A,,Clear,290,2013-04-01 15:53:00
11:53 AM,21.9,7.0,53,30.27,10.0,WNW,9.2,19.6,N/A,,Clear,300,2013-04-01 16:53:00
12:53 PM,25.0,8.1,49,30.26,10.0,WNW,10.4,17.3,N/A,,Clear,300,2013-04-01 17:53:00
1:53 PM,26.6,8.6,47,30.18,10.0,WNW,11.5,19.6,N/A,,Clear,290,2013-04-01 18:53:00
2:53 PM,28.9,10.0,45,30.24,10.0,WNW,9.2,20.7,N/A,,Clear,300,2013-04-01 19:53:00
3:53 PM,30.0,10.0,43,30.23,10.0,WNW,8.1,20.7,N/A,,Clear,290,2013-04-01 20:53:00
4:53 PM,30.0,10.9,45,30.23,10.0,WNW,8.1,16.1,N/A,,Clear,290,2013-04-01 21:53:00
5:53 PM,30.0,10.9,45,30.24,10.0,Variable,5.8,-,N/A,,Clear,0,2013-04-01 22:53:00
6:53 PM,28.9,10.0,45,30.23,10.0,WNW,8.1,-,N/A,,Clear,290,2013-04-01 23:53:00
7:53 PM,26.1,10.0,51,30.23,10.0,Variable,5.8,-,N/A,,Clear,0,2013-04-02 00:53:00
8:53 PM,23.0,10.0,58,30.24,10.0,West,5.8,-,N/A,,Clear,270,2013-04-02 01:53:00
9:53 PM,21.0,10.0,63,30.25,10.0,WNW,4.6,-,N/A,,Clear,290,2013-04-02 02:53:00
10:53 PM,19.9,10.0,65,30.25,10.0,WNW,4.6,-,N/A,,Clear,300,2013-04-02 03:53:00
11:53 PM,19.0,10.0,68,30.25,10.0,WNW,5.8,-,N/A,,Clear,300,2013-04-02 04:53:00